Home > Time Zones > World Clock > Weather > Mali > Bamako > Past weeks

Flag for Mali Weather past 2 weeks in Bamako, Mali

Now
97 °F

Passing clouds.


Feels Like: 92 °F
Forecast: N/A
Wind: 10 mph from East

Location: Bamako / Senou

Current Time: Mar 31, 2015 at 4:22:24 PM

Latest Report: Mar 31, 2015 at 4:00 PM


Visibility: N/A

Pressure: 29.86 "Hg

Humidity: 5%

Dew point: 16 °F

Location of BamakoLocation

Historic Weather in Bamako — Graph

°F

Bamako temperature yesterday

Maximum temperature yesterday: 95 °F (at 3:00 PM)
Minimum temperature yesterday: 72 °F (at 4:00 AM)
Average temperature yesterday: 82 °F

Past Weeks' High & Low Weather Summary

 TemperatureHumidityPressure
High102 °F (Mar 16, 3:00 PM)50% (Mar 21, 5:30 AM)30.07 "Hg (Mar 21, 5:30 AM)
Low68 °F (Mar 31, 2:00 AM)4% (Mar 31, 2:30 PM)29.74 "Hg (Mar 20, 3:00 PM)
Average87 °F17%29.90 "Hg
* Reported Mar 16 3:00 PM — Mar 31 3:00 PM, Bamako, Weather by CustomWeather, © 2015

Note: Actual official high and low records may vary slightly from our data, if they occured in-between our weather recording intervals... More about our weather records

Advertising

Bamako weather history for previous 24 hours

 ConditionsComfort  
Time TempWeatherWind HumidityBarometerVisibility
3:00 PM
Tue, Mar 31
97 °FPassing clouds.7 mph5%29.89 "HgN/A
2:30 PM97 °FSunny.8 mph4%29.89 "Hg10 mi
2:00 PM97 °FSunny.6 mph5%29.92 "Hg10 mi
1:30 PM95 °FPassing clouds.8 mph5%29.92 "HgN/A
1:00 PM95 °FPassing clouds.8 mph5%29.95 "HgN/A
12:30 PM95 °FPassing clouds.8 mph5%29.95 "HgN/A
12:00 PM95 °FPassing clouds.14 mph6%29.98 "HgN/A
11:30 AM93 °FClear.18 mph6%30.01 "Hg5 mi
11:00 AM91 °FClear.18 mph7%30.01 "Hg5 mi
10:30 AM90 °FClear.18 mph8%30.01 "Hg5 mi
10:00 AM88 °FClear.16 mph8%30.01 "Hg5 mi
9:30 AM86 °FClear.17 mph9%30.01 "Hg5 mi
9:00 AM84 °FClear.14 mph9%30.01 "Hg5 mi
8:30 AM81 °FClear.8 mph12%30.01 "Hg5 mi
8:00 AM79 °FClear.9 mph12%30.01 "Hg5 mi
7:30 AM73 °FClear.7 mph15%29.98 "Hg5 mi
7:00 AM72 °FClear.7 mph15%29.98 "Hg5 mi
6:30 AM72 °FSunny.8 mph14%29.98 "Hg10 mi
6:00 AM72 °FClear.7 mph15%29.95 "Hg10 mi
5:00 AM70 °FClear.8 mph15%29.95 "Hg10 mi
4:30 AM75 °FClear.8 mph12%29.92 "Hg10 mi
4:00 AM72 °FClear.9 mph15%29.92 "Hg10 mi
3:30 AM70 °FClear.7 mph20%29.92 "Hg10 mi
2:30 AM68 °FClear.5 mph20%29.92 "Hg10 mi
2:00 AM68 °FClear.7 mph20%29.92 "Hg10 mi
1:30 AM70 °FClear.5 mph16%29.92 "Hg10 mi
1:00 AM73 °FClear.8 mph14%29.95 "Hg10 mi
12:30 AM73 °FClear.7 mph13%29.95 "Hg10 mi
11:30 PM
Mon, Mar 30
73 °FClear.9 mph14%29.95 "Hg10 mi
11:00 PM72 °FClear.8 mph16%29.95 "Hg10 mi
10:30 PM73 °FClear.8 mph15%29.95 "Hg10 mi
10:00 PM77 °FClear.8 mph12%29.95 "Hg10 mi
9:30 PM75 °FClear.7 mph12%29.95 "Hg10 mi
9:00 PM77 °FClear.5 mph12%29.92 "Hg10 mi
8:30 PM81 °FClear.7 mph9%29.92 "Hg10 mi
8:00 PM81 °FClear.7 mph9%29.89 "Hg10 mi
7:30 PM82 °FClear.7 mph8%29.89 "Hg10 mi
7:00 PM84 °FClear.7 mph7%29.89 "Hg10 mi
6:30 PM90 °FSunny.6 mph6%29.86 "Hg10 mi
6:00 PM91 °FPassing clouds.5 mph5%29.86 "HgN/A
5:30 PM93 °FSunny.9 mph5%29.86 "Hg10 mi
5:00 PM93 °FPassing clouds.9 mph5%29.86 "HgN/A
4:30 PM93 °FPassing clouds.8 mph5%29.86 "HgN/A
4:00 PM95 °FSunny.6 mph5%29.86 "Hg10 mi
Weather by CustomWeather, © 2015

See weather overviewHow to use our weather pages